Location: Celina Division
(33.3022°N, 96.7580°W)
Time: 14:48:25
(UTC+00:00)

DUCHIFAT 1 - Pass Details

Date: 05 April 2023
Orbit: 567 x 581 km, 98.1° (Epoch: 28 May)

Event Time Altitude Azimuth Distance (km) Brightness Sun altitude
Rises 09:47:56 0° 8° (N) 2,776 ? -28.8°
Reaches altitude 10° 09:50:06 10° 5° (N) 1,873 ? -28.4°
Enters shadow 09:51:42 23° 360° (N) 1,235 ? -28.1°
